Flag for Germany Weather past 2 weeks in Zweibrücken, Rhineland-Palatinate, Germany

41 °F

Scattered clouds.

Feels Like: 36 °F
Forecast: 27 / 38 °F
Wind: 8 mph from North

Location: Saarbruecken / Ensheim

Current Time: Nov 26, 2015 at 1:35:42 PM

Latest Report: Nov 26, 2015 at 1:20 PM

Visibility: N/A

Pressure: 30.04 "Hg

Humidity: 81%

Dew point: 36 °F

Location of ZweibrückenLocation

Historic Weather in Zweibrücken — Graph


Zweibrücken temperature yesterday

Maximum temperature yesterday: 39 °F (at 2:50 PM)
Minimum temperature yesterday: 32 °F (at 12:20 AM)
Average temperature yesterday: 35 °F

Past Weeks' High & Low Weather Summary

High57 °F (Nov 12, 2:20 PM)100% (Nov 12, 10:20 PM)30.45 "Hg (Nov 12, 10:20 PM)
Low27 °F (Nov 23, 3:50 AM)62% (Nov 14, 1:20 PM)29.42 "Hg (Nov 21, 9:50 AM)
Average44 °F88%30.02 "Hg
* Reported Nov 11 12:20 PM — Nov 26 12:20 PM, Zweibrücken, Weather by CustomWeather, © 2015

Note: Actual official high and low records may vary slightly from our data, if they occured in-between our weather recording intervals... More about our weather records


Zweibrücken weather history for previous 24 hours

Time TempWeatherWind HumidityBarometerVisibility
12:20 PM
Thu, Nov 26
39 °FBroken clouds.8 mph87%30.01 "HgN/A
11:50 AM39 °FScattered clouds.7 mph93%30.01 "HgN/A
11:20 AM39 °FScattered clouds.8 mph100%30.01 "HgN/A
10:50 AM39 °FPartly sunny.6 mph93%30.01 "HgN/A
10:20 AM37 °FPartly sunny.3 mph100%29.98 "HgN/A
9:50 AM36 °FScattered clouds.6 mph100%29.98 "HgN/A
9:20 AM36 °FScattered clouds.2 mph93%29.98 "Hg5 mi
8:50 AM36 °FScattered clouds.5 mph93%29.95 "Hg5 mi
8:20 AM36 °FPartly sunny.3 mph93%29.95 "Hg4 mi
7:50 AM36 °FPassing clouds.3 mph100%29.92 "Hg4 mi
7:20 AM36 °FPassing clouds.7 mph100%29.92 "Hg4 mi
6:50 AM36 °FPartly cloudy.2 mph93%29.89 "Hg3 mi
6:20 AM36 °FPassing clouds.6 mph100%29.89 "Hg5 mi
5:50 AM36 °FPassing clouds.6 mph100%29.89 "Hg5 mi
5:20 AM36 °FPassing clouds.6 mph100%29.86 "Hg6 mi
4:50 AM36 °FPassing clouds.6 mph93%29.86 "Hg6 mi
4:20 AM36 °FPassing clouds.5 mph100%29.86 "Hg5 mi
3:50 AM36 °FPartly cloudy.5 mph100%29.86 "Hg5 mi
3:20 AM36 °FOvercast.6 mph100%29.86 "Hg5 mi
2:50 AM34 °FPassing clouds.6 mph100%29.86 "Hg4 mi
2:20 AM34 °FPassing clouds.6 mph100%29.83 "Hg2 mi
1:20 AM34 °FPassing clouds.6 mph100%29.80 "Hg5 mi
12:50 AM34 °FPassing clouds.6 mph100%29.80 "Hg6 mi
12:20 AM34 °FPassing clouds.5 mph100%29.80 "Hg3 mi
11:50 PM
Wed, Nov 25
34 °FPassing clouds.5 mph100%29.80 "Hg5 mi
11:20 PM34 °FPassing clouds.2 mph100%29.80 "Hg3 mi
10:50 PM34 °FPassing clouds.2 mph100%29.77 "Hg6 mi
10:20 PM36 °FPassing clouds.3 mph93%29.77 "Hg6 mi
9:50 PM36 °FPassing clouds.7 mph93%29.77 "Hg5 mi
9:20 PM36 °FPassing clouds.6 mph93%29.77 "Hg5 mi
8:50 PM34 °FPassing clouds.3 mph100%29.77 "HgN/A
8:20 PM34 °FPassing clouds.3 mph100%29.74 "Hg4 mi
7:50 PM34 °FPassing clouds.2 mph100%29.74 "Hg4 mi
7:20 PM36 °FPassing clouds.6 mph93%29.74 "HgN/A
6:50 PM36 °FPassing clouds.6 mph93%29.74 "Hg6 mi
6:20 PM36 °FPassing clouds.6 mph93%29.74 "HgN/A
5:50 PM36 °FPassing clouds.5 mph100%29.71 "HgN/A
5:20 PM37 °FSprinkles. Partly cloudy.8 mph100%29.71 "HgN/A
4:50 PM37 °FSprinkles. Passing clouds.13 mph100%29.71 "Hg4 mi
4:20 PM39 °FFog.7 mph100%29.71 "Hg3 mi
3:50 PM39 °FSleet. Cloudy.7 mph100%29.71 "Hg3 mi
3:20 PM39 °FSleet. Cloudy.7 mph100%29.71 "Hg2 mi
2:50 PM39 °FPartly sunny.6 mph93%29.71 "HgN/A
2:20 PM37 °FLight rain. Fog.5 mph100%29.71 "Hg1 mi
1:50 PM37 °FFog.6 mph100%29.74 "Hg1 mi
1:20 PM37 °FFog.6 mph100%29.74 "Hg1 mi
Weather by CustomWeather, © 2015

See weather overviewHow to use our weather pages